Theta_e
316 317 322 324 317 318 323 326 328 332 342 342 342 342 346 350 345 349 349 351 350 333 342 344 341 341 343 343 341 339 337 335 328 319 320 319 319 322 327 329 328 326 325 323 323 322 322 324 322
314 316 322 322 317 319 321 326 328 330 338 339 348 349 350 347 345 338 352 354 347 332 337 342 340 341 342 342 342 340 338 337 332 320 318 320 321 323 325 327 327 325 324 323 323 323 322 324 323
313 318 322 314 315 319 320 324 326 330 336 337 342 349 349 349 349 347 352 353 345 335 337 338 338 340 341 341 342 341 339 338 335 324 318 321 323 324 325 326 326 324 324 324 323 323 323 324 324
314 322 323 314 316 319 322 325 325 327 333 335 338 350 345 349 347 346 348 352 335 334 336 337 337 339 339 340 341 342 340 339 337 329 319 320 324 328 327 326 325 324 324 324 324 324 326 326 327
322 323 314 315 316 320 322 325 326 327 331 334 335 354 345 345 347 347 352 352 333 333 335 336 336 337 337 337 341 342 341 340 338 332 324 318 323 328 327 325 323 325 324 324 325 326 329 329 329
319 319 315 316 318 321 323 326 326 326 328 333 334 352 350 348 347 352 353 351 336 331 334 334 334 332 331 335 339 341 341 340 339 334 326 321 320 325 327 324 322 323 325 325 325 327 329 330 331
316 316 316 318 320 321 323 326 325 326 327 335 335 351 347 346 349 351 353 349 335 333 334 333 333 330 330 333 337 339 341 340 340 335 327 324 319 323 325 323 323 322 323 325 325 327 328 328 330
319 316 318 319 321 322 323 326 327 327 328 335 333 346 349 346 348 351 350 350 347 337 334 333 331 330 330 331 333 337 339 339 338 333 328 324 322 320 324 323 322 322 322 323 324 325 326 327 327
319 316 318 318 320 322 326 323 327 328 329 330 337 350 350 347 348 349 350 350 349 347 334 332 331 329 329 330 332 336 338 338 337 334 330 326 323 320 323 323 322 322 322 322 322 323 323 324 325
318 316 318 318 319 321 323 325 326 326 326 327 354 351 349 348 348 348 349 349 349 349 339 332 331 329 328 329 330 334 338 337 336 334 330 327 324 322 320 323 322 323 323 323 322 322 322 322 322
320 320 319 320 321 321 322 323 324 325 324 326 340 357 351 349 348 348 348 348 349 350 339 332 331 330 327 327 328 330 331 332 332 330 327 325 324 323 320 322 323 323 323 323 323 323 322 321 321
321 321 321 320 321 320 320 322 321 321 324 326 327 347 356 354 350 348 348 348 348 349 348 333 332 331 328 326 326 326 327 328 325 322 322 322 323 322 320 319 322 327 333 328 324 323 329 329 338
320 321 322 320 320 320 320 320 320 320 322 324 325 326 346 351 355 351 348 348 348 348 348 346 333 334 334 333 329 328 328 327 325 321 320 321 322 321 328 334 330 336 340 340 338 337 340 339 339
319 321 322 322 320 319 319 319 320 321 321 324 324 325 339 347 350 353 352 349 347 347 347 347 345 338 336 338 338 333 331 330 329 327 322 321 321 322 331 338 338 337 340 340 341 340 341 341 340
319 320 320 321 322 322 322 318 319 321 321 322 323 324 326 333 334 345 344 347 349 348 348 347 346 346 338 342 343 344 336 337 338 335 334 332 322 322 332 338 337 340 339 338 337 341 342 342 343
321 319 320 320 322 322 323 324 321 322 321 321 321 322 323 324 325 324 327 339 347 349 347 347 347 347 342 348 348 345 341 343 345 345 345 346 339 325 328 337 337 337 336 334 336 337 337 337 338
320 322 320 321 321 322 323 324 322 323 322 320 321 321 322 322 322 323 323 324 327 349 349 348 348 347 344 344 352 347 345 345 347 347 348 348 349 348 338 336 340 342 345 344 344 344 344 344 343
322 322 321 321 322 322 322 323 323 323 323 322 321 320 321 321 321 321 322 322 323 339 350 348 347 340 339 347 345 351 347 346 348 350 349 349 349 349 349 345 344 344 348 350 349 347 347 346 346
320 321 321 321 321 322 322 323 323 322 322 322 321 322 321 320 321 321 321 321 321 342 351 350 348 343 343 348 347 351 351 350 352 350 352 351 351 351 351 351 349 347 348 348 347 346 346 345 345
318 318 318 319 320 320 321 322 323 323 323 323 321 322 322 321 320 320 321 321 321 330 354 351 350 346 335 340 351 346 351 349 351 350 350 353 352 352 352 350 349 349 349 350 348 348 343 341 343
317 316 317 318 319 319 319 320 320 323 324 323 322 322 322 322 321 321 321 321 321 335 356 353 352 350 352 353 354 346 346 348 351 351 352 352 352 352 351 352 350 349 350 347 348 347 343 340 342
318 318 318 317 317 319 318 320 319 323 324 324 322 322 322 322 322 321 321 321 321 325 352 355 353 354 354 354 354 355 349 355 353 354 354 353 351 353 352 351 347 349 348 348 346 343 336 342 342
320 321 321 322 321 318 317 318 319 323 324 324 322 322 322 323 322 322 322 321 321 325 328 351 357 356 355 356 355 355 354 352 357 357 355 356 353 353 352 351 349 348 347 346 343 341 341 342 342
321 321 322 322 321 324 317 317 318 320 322 323 324 323 323 323 322 321 321 320 324 325 327 329 349 355 357 355 353 355 350 354 354 356 357 355 354 353 352 351 348 349 345 344 344 341 343 342 341
317 318 325 325 324 324 318 317 318 320 323 324 323 323 323 323 322 321 322 321 322 328 328 332 339 338 352 354 351 351 348 350 352 352 353 353 344 343 347 348 348 345 344 343 343 341 339 341 341
317 317 320 324 322 322 320 319 318 319 320 323 324 324 324 323 325 322 322 323 322 329 330 330 332 343 344 349 350 352 351 352 350 341 341 338 345 348 347 346 344 343 342 341 342 341 339 337 337
320 320 319 321 322 325 323 320 318 319 320 320 320 321 320 322 324 324 323 323 323 327 329 327 325 324 325 327 336 347 350 348 350 347 344 347 347 345 343 343 343 342 341 340 339 338 334 333 333
319 320 323 317 323 322 322 322 320 325 326 321 320 319 320 321 324 324 324 323 323 324 327 326 325 324 325 330 348 350 349 348 350 345 349 347 345 344 344 343 342 340 337 335 332 331 330 329 328
319 321 321 320 322 322 320 319 324 327 325 326 327 319 321 326 324 324 324 323 323 324 324 327 327 329 337 343 351 350 348 348 347 348 346 345 343 340 336 332 330 327 323 322 323 325 327 326 325
319 321 321 320 321 322 321 322 325 326 325 325 331 324 344 343 337 333 328 324 325 325 335 340 338 332 342 344 350 349 347 346 346 346 341 338 334 330 328 326 324 322 321 319 319 318 318 318 319
Wind_Speed
8 5 2 9 3 1 5 10 6 17 5 20 20 9 9 16 8 6 14 23 20 32 33 30 29 28 26 24 22 20 19 18 17 18 19 20 20 20 18 16 15 15 14 15 15 15 15 15 16
7 5 4 5 3 2 7 15 23 13 10 12 38 33 9 4 13 12 22 22 18 32 33 32 29 27 26 24 22 20 19 17 17 17 19 20 19 18 16 14 14 13 13 14 14 14 14 15 16
6 2 2 5 4 7 6 19 12 15 13 10 11 30 18 13 17 28 21 25 23 32 33 32 30 28 26 24 23 20 18 17 16 16 18 19 18 16 14 13 12 12 12 13 13 13 14 14 15
4 4 7 1 10 10 20 18 16 16 7 6 9 11 13 18 33 24 27 24 29 32 32 32 29 28 26 24 23 21 19 17 15 15 16 18 17 15 13 12 11 11 11 12 12 13 14 14 14
6 8 3 5 10 13 20 26 25 16 12 7 4 13 24 29 30 32 31 25 35 34 32 31 29 26 25 24 23 22 19 17 15 14 14 16 16 14 13 11 11 10 10 11 11 13 12 12 12
5 6 2 9 14 17 18 30 24 18 21 17 13 25 11 26 34 37 29 24 36 35 34 31 28 26 25 24 24 22 20 18 15 13 13 15 15 14 12 11 10 10 9 10 11 12 11 9 8
4 3 6 9 13 12 17 32 16 17 14 1 18 9 26 39 38 34 24 23 26 32 34 32 29 27 25 25 24 24 22 19 16 13 12 13 14 14 12 10 9 9 9 9 10 11 10 9 8
10 3 7 10 13 16 21 28 32 24 22 16 5 7 22 39 37 32 28 27 20 26 33 33 31 29 28 27 26 25 23 20 17 14 12 12 13 15 13 12 10 10 10 9 9 10 10 9 9
17 4 10 13 15 12 21 11 34 24 10 3 6 24 40 40 39 33 36 29 26 24 31 32 32 31 29 29 28 26 24 22 20 18 16 16 16 17 16 13 11 10 9 9 9 9 9 10 11
9 7 19 13 12 11 18 22 29 13 15 7 24 33 41 41 38 39 40 35 31 27 33 34 33 32 31 30 30 29 27 25 23 21 19 17 16 16 16 14 12 11 10 10 9 9 10 11 11
11 20 17 22 26 31 24 28 33 16 7 12 18 34 37 39 38 39 39 35 32 27 28 36 34 32 31 31 30 30 28 26 24 22 20 18 17 17 17 16 15 13 11 11 10 10 11 10 10
18 23 30 27 32 32 18 24 20 13 18 14 20 25 31 34 36 39 38 39 34 30 25 33 34 33 31 29 29 28 27 26 24 22 20 20 19 18 17 18 15 11 7 9 13 12 10 10 6
19 19 30 30 37 40 33 22 24 18 27 22 10 6 33 33 32 33 34 38 38 33 28 26 31 31 29 25 26 26 25 23 21 20 20 21 20 19 17 11 13 11 8 6 6 5 6 6 7
15 21 23 30 34 33 25 23 19 32 30 27 12 5 18 30 30 28 28 33 41 38 34 30 26 26 30 26 22 24 24 22 21 19 19 20 20 19 17 14 13 13 12 10 10 12 12 11 10
28 19 18 25 20 21 19 17 20 33 29 25 23 11 16 16 15 23 22 21 27 40 40 33 29 24 28 28 24 18 23 20 18 18 17 17 19 21 20 20 18 18 19 15 14 9 6 8 9
16 14 19 12 18 22 11 26 22 30 28 27 26 25 17 22 22 20 17 18 19 40 43 29 28 26 26 24 22 22 20 20 16 13 14 13 14 20 22 22 20 15 15 20 21 18 21 22 22
9 18 17 15 16 11 14 28 17 35 28 23 26 27 20 20 21 28 26 19 20 36 42 44 43 34 22 27 21 23 22 24 20 16 14 14 14 13 19 22 20 16 13 15 19 20 21 22 21
10 12 14 21 17 18 14 27 19 24 26 25 26 30 27 27 28 25 27 25 19 29 47 50 41 31 26 37 34 27 27 25 25 22 20 18 19 18 16 19 20 22 20 18 21 23 22 23 24
17 18 20 20 16 22 18 22 20 19 28 22 25 28 26 37 32 34 30 32 30 28 47 51 41 29 33 36 33 36 34 31 28 29 23 23 21 20 18 17 17 20 20 22 26 27 29 32 33
22 23 23 21 19 16 16 26 20 18 20 33 28 29 31 32 38 38 40 37 41 36 41 48 48 45 33 37 41 50 40 36 33 29 29 23 23 22 19 18 16 17 22 26 23 22 19 23 25
20 19 17 20 18 21 17 20 14 11 24 34 35 38 35 39 43 46 44 39 42 38 38 41 47 43 37 38 37 42 42 35 29 29 30 28 25 24 23 21 20 20 21 24 23 24 23 25 27
21 19 21 19 14 13 10 14 16 7 15 16 32 34 36 40 30 46 48 45 36 45 37 47 40 39 42 41 36 33 38 32 31 29 26 27 25 25 23 21 20 20 24 24 24 25 20 18 23
16 13 11 14 14 14 16 10 10 6 18 14 20 26 38 41 40 32 35 35 43 44 47 43 43 41 39 38 36 35 34 33 28 27 30 29 31 27 26 25 23 23 24 20 21 19 18 19 18
16 7 9 11 11 11 15 13 15 13 17 17 14 21 37 41 40 39 40 39 24 46 49 47 46 43 42 40 36 36 32 29 30 26 29 27 23 22 21 21 21 18 16 14 13 15 15 15 16
22 9 5 3 4 10 14 15 13 10 15 18 16 26 33 36 42 45 43 41 28 47 54 51 48 44 44 40 35 33 31 35 32 28 28 23 21 18 16 17 17 15 12 11 12 13 12 12 13
3 8 8 6 5 10 16 16 13 20 18 23 29 32 42 38 39 49 49 42 33 40 49 50 46 43 41 38 38 34 29 34 27 23 18 20 17 16 17 17 15 12 10 10 9 8 10 12 14
4 5 6 5 6 4 4 22 16 21 21 19 21 31 31 24 44 45 52 41 38 36 48 50 48 40 42 41 36 36 31 26 23 23 22 21 20 20 17 15 14 12 12 10 11 13 10 6 8
10 3 5 3 5 4 7 10 10 1 8 15 23 22 33 39 45 46 45 45 42 37 43 49 46 43 41 36 33 32 30 26 28 27 24 21 20 17 17 13 11 11 11 7 5 2 0 2 2
3 4 5 3 3 4 8 10 6 4 5 12 22 29 22 17 34 44 48 46 43 40 38 50 48 42 36 34 32 34 33 32 28 26 24 21 19 15 12 10 8 6 4 3 4 5 5 8 10
3 4 5 4 6 6 5 7 3 7 6 15 21 21 24 21 21 20 28 41 43 44 44 46 45 41 37 35 37 38 34 32 32 28 25 22 22 19 16 13 10 6 4 4 6 8 9 11 12
Wind_Direction
266 227 301 326 34 118 259 259 250 274 256 184 217 92 133 109 147 230 140 187 176 160 160 162 160 155 151 149 145 137 130 125 120 124 126 128 131 131 129 126 122 121 121 121 124 127 129 127 125
262 249 260 250 139 263 268 253 257 267 177 150 106 114 88 115 155 173 165 187 177 162 162 163 162 158 155 153 151 145 138 131 123 124 129 131 133 134 131 128 126 124 123 125 130 133 134 131 127
253 255 251 162 206 219 248 262 291 307 156 174 101 113 139 160 155 150 197 171 174 165 162 163 163 160 159 157 156 153 146 138 129 127 133 135 135 134 134 132 128 126 127 131 137 139 138 135 130
260 236 251 150 242 252 235 262 270 285 253 156 96 98 119 140 148 188 188 180 172 166 164 165 164 163 163 161 161 160 154 147 138 132 136 142 140 138 138 136 131 129 131 135 140 141 140 139 135
253 261 224 214 242 256 266 267 282 296 292 131 148 138 138 141 163 176 174 181 173 165 166 166 165 166 165 165 167 165 161 157 149 140 141 149 149 145 145 143 137 134 134 137 143 147 147 144 142
275 227 230 223 246 260 264 268 274 271 281 185 135 119 145 153 156 164 173 175 173 163 166 167 166 168 167 168 170 169 167 165 160 152 148 155 160 158 155 151 147 144 142 143 151 157 160 161 161
210 311 226 232 251 262 258 266 259 266 276 232 158 120 141 149 159 165 168 165 166 166 166 168 168 169 169 170 171 172 172 170 170 165 159 163 169 170 166 164 161 161 163 162 167 177 186 193 198
241 236 261 257 249 256 269 278 279 293 277 198 168 144 156 155 159 155 157 173 164 167 172 169 170 172 172 171 172 172 174 175 176 175 172 171 176 181 180 180 178 178 182 186 190 197 206 216 224
236 231 246 237 244 255 276 287 285 303 329 31 99 150 156 153 157 152 163 171 174 177 180 176 174 174 176 174 173 176 179 182 183 184 184 185 185 189 191 191 191 194 198 204 211 219 227 234 242
203 224 238 250 255 258 270 277 279 297 300 258 109 126 143 154 160 160 166 172 181 183 186 183 180 178 178 178 179 179 183 188 191 193 194 192 191 196 199 201 202 207 212 217 226 233 241 249 257
222 233 245 254 250 258 265 277 284 301 310 229 149 143 153 161 166 166 170 178 191 184 182 185 184 183 183 184 184 184 187 190 195 199 200 198 198 198 202 209 212 218 229 238 245 251 258 265 271
245 239 240 255 260 269 269 288 293 304 274 262 220 173 168 169 173 174 176 180 191 194 194 189 188 187 188 186 190 190 191 193 198 200 201 202 204 199 204 212 217 220 247 262 265 264 280 260 273
258 241 250 248 248 258 271 264 269 291 283 274 218 264 182 181 179 184 184 186 192 196 197 195 191 188 190 189 193 195 196 199 202 204 201 204 206 207 193 212 225 225 241 262 312 281 290 297 276
272 270 259 245 247 245 247 260 269 274 274 264 261 196 165 181 180 191 185 194 189 195 203 200 193 191 195 194 196 205 201 202 204 207 207 206 209 208 204 210 231 232 245 253 270 290 291 283 272
259 271 275 256 265 254 259 255 242 252 265 267 249 216 195 202 184 191 189 198 196 194 193 194 196 195 201 197 205 208 214 202 201 203 199 207 211 206 202 213 223 229 243 257 269 265 262 270 255
281 270 254 255 254 259 248 250 249 254 260 255 254 254 222 200 218 223 223 222 200 197 182 196 210 189 195 197 205 216 214 205 208 210 199 193 204 211 211 211 226 230 230 231 239 250 254 261 263
253 255 261 265 245 247 228 256 241 239 241 244 249 248 242 230 214 214 217 221 238 201 192 186 194 183 191 203 207 214 214 208 216 223 225 217 225 228 225 221 225 228 234 237 243 247 249 250 255
238 253 253 256 263 234 243 257 246 218 236 246 250 246 247 244 237 233 225 222 239 215 192 185 199 220 210 208 205 206 211 211 211 213 225 232 234 234 240 241 232 221 227 239 242 243 243 249 250
263 265 254 253 242 243 248 254 243 222 219 233 231 230 238 235 238 242 240 235 238 212 196 199 201 213 202 204 212 207 208 206 209 212 214 231 238 240 241 240 247 233 227 244 248 255 260 263 263
235 245 258 272 273 278 268 253 249 234 223 216 218 221 233 239 235 236 238 234 228 224 201 199 207 204 203 207 212 213 210 208 211 212 214 220 236 244 248 249 244 244 242 246 258 266 268 276 270
242 246 249 245 254 268 266 274 272 264 229 211 212 213 223 226 234 234 225 223 225 215 195 198 189 208 208 197 206 209 215 218 218 219 217 218 227 238 241 246 258 263 253 249 249 250 249 262 272
247 238 249 262 260 247 251 262 262 249 278 246 205 201 215 222 239 220 218 224 228 217 196 189 190 196 204 206 209 205 204 204 212 218 218 216 225 229 236 240 258 259 261 253 253 276 272 273 274
281 291 332 309 293 293 249 254 264 252 233 262 197 206 214 221 227 218 211 221 233 219 209 201 194 197 205 211 214 212 210 208 207 212 214 220 220 224 232 238 248 254 260 254 258 263 274 270 271
269 271 313 325 297 273 251 234 251 243 247 268 252 224 209 220 218 217 224 228 243 217 208 206 202 203 203 206 209 211 204 207 208 201 205 211 216 225 231 243 251 246 253 253 253 256 259 270 273
279 215 210 285 268 259 256 240 228 220 225 215 238 232 230 218 214 214 217 216 228 211 203 200 200 205 208 205 209 208 204 214 216 215 221 229 233 224 228 235 237 232 229 233 249 255 264 277 282
232 325 232 212 222 264 259 260 234 246 244 239 238 238 236 227 213 203 207 215 215 209 200 197 198 200 206 205 205 203 208 216 218 216 201 203 198 195 210 213 216 227 237 259 257 264 270 266 276
307 255 297 179 194 258 277 270 240 232 236 237 255 257 263 253 216 203 205 207 209 205 200 197 196 201 205 207 210 201 205 204 192 188 188 183 181 191 204 208 211 223 247 243 256 273 283 298 295
200 151 313 4 182 226 235 270 247 290 318 266 240 249 253 263 208 199 202 205 212 207 201 198 197 201 199 196 195 189 187 181 184 189 184 185 186 191 198 198 210 230 245 248 243 212 352 283 296
162 151 180 192 161 204 261 253 190 261 313 317 294 235 239 208 184 193 199 204 204 209 203 195 191 188 178 177 181 186 186 189 185 180 182 175 172 173 166 160 160 158 137 138 185 218 225 270 278
164 323 204 179 184 208 245 270 353 295 347 315 274 238 115 100 137 149 180 196 195 189 170 165 168 173 172 175 173 170 170 175 174 173 162 157 150 148 147 151 159 168 202 244 258 277 287 285 289